Location: Marcé
(47.5801°N, 0.3280°W)
Time: 18:37:42
(UTC+01:00)

Transit 2A Rocket - All Passes

Search period start: 06 December 2021 00:00
Search period end: 16 December 2021 00:00
Orbit: 584 x 918 km, 66.7° (Epoch: 05 December)

Date Brightness Start Highest point End Pass type
(mag) Time Alt. Az. Time Alt. Az. Time Alt. Az.
06 Dec - 07:39:27 10° S 07:44:50 45° ESE 07:50:35 10° NE visible
06 Dec - 09:22:04 10° WSW 09:27:35 42° NW 09:33:23 10° NNE daylight
06 Dec - 11:08:15 10° WNW 11:11:56 16° NNW 11:15:40 10° NNE daylight
06 Dec - 12:54:42 10° NNW 12:57:16 13° N 12:59:48 10° NNE daylight
06 Dec - 14:37:32 10° NNW 14:42:18 23° NNE 14:46:55 10° E daylight
06 Dec - 16:19:52 10° NNW 16:26:00 74° NE 16:31:46 10° SE daylight
06 Dec - 18:03:30 10° WNW 18:08:02 23° WSW 18:12:21 10° SSW visible
07 Dec - 06:57:36 10° SSE 07:02:25 29° ESE 07:07:30 10° NE visible
07 Dec - 08:38:58 10° SW 08:44:41 60° NW 08:50:46 10° NNE daylight
07 Dec - 10:24:19 10° WNW 10:28:38 20° NNW 10:33:04 10° NNE daylight
07 Dec - 12:11:21 10° NNW 12:13:47 12° N 12:16:14 10° NNE daylight
07 Dec - 13:54:56 10° NNW 13:59:02 18° NNE 14:03:03 10° ENE daylight
07 Dec - 15:37:13 10° NNW 15:43:10 50° NE 15:48:49 10° ESE daylight
07 Dec - 17:20:14 10° NW 17:25:41 36° WSW 17:30:48 10° S daylight
08 Dec - 06:16:24 10° SE 06:20:08 18° ESE 06:24:00 10° ENE visible
08 Dec - 07:56:09 10° SSW 08:01:55 89° WNW 08:08:05 10° NE visible
08 Dec - 09:40:33 10° W 09:45:25 26° NW 09:50:28 10° NNE daylight
08 Dec - 11:27:36 10° NW 11:30:20 13° N 11:33:05 10° NNE daylight
08 Dec - 13:12:17 10° NNW 13:15:42 15° NNE 13:19:05 10° NE daylight
08 Dec - 14:54:36 10° NNW 15:00:13 36° NE 15:05:35 10° ESE daylight
08 Dec - 16:37:16 10° NW 16:43:11 56° WSW 16:48:45 10° SSE daylight
09 Dec - 05:37:10 10° ESE 05:37:56 10° E 05:38:44 10° E visible
09 Dec - 07:13:39 10° SSW 07:19:18 61° ESE 07:25:17 10° NE visible
09 Dec - 08:57:00 10° WSW 09:02:20 34° NW 09:07:54 10° NNE daylight
09 Dec - 10:43:37 10° NW 10:46:55 15° NNW 10:50:15 10° NNE daylight
09 Dec - 12:29:28 10° NNW 12:32:18 13° N 12:35:05 10° NE daylight
09 Dec - 14:12:02 10° NNW 14:17:08 27° NE 14:22:05 10° E daylight
09 Dec - 15:54:27 10° NW 16:00:35 86° WSW 16:06:19 10° SSE daylight
09 Dec - 17:38:45 10° WNW 17:42:18 16° WSW 17:45:43 10° SW visible
10 Dec - 06:31:31 10° S 06:36:47 39° ESE 06:42:21 10° NE visible
10 Dec - 08:13:43 10° WSW 08:19:21 48° NW 08:25:18 10° NNE daylight
10 Dec - 09:59:38 10° WNW 10:03:34 18° NNW 10:07:34 10° NNE daylight
10 Dec - 11:46:23 10° NNW 11:48:50 12° N 11:51:17 10° NNE daylight
10 Dec - 13:29:27 10° NNW 13:33:57 21° NNE 13:38:21 10° ENE daylight
10 Dec - 15:11:45 10° NNW 15:17:50 64° NE 15:23:32 10° SE daylight
10 Dec - 16:55:07 10° NW 17:00:01 27° WSW 17:04:40 10° SSW daylight
11 Dec - 05:49:53 10° SSE 05:54:25 25° ESE 05:59:09 10° NE visible
11 Dec - 07:30:44 10° SW 07:36:31 70° NW 07:42:39 10° NNE visible
11 Dec - 09:15:44 10° W 09:20:18 22° NNW 09:24:58 10° NNE daylight
11 Dec - 11:02:52 10° NNW 11:05:22 12° N 11:07:53 10° NNE daylight
11 Dec - 12:46:50 10° NNW 12:50:40 17° NNE 12:54:27 10° ENE daylight
11 Dec - 14:29:07 10° NNW 14:34:57 44° NE 14:40:29 10° ESE daylight
11 Dec - 16:12:00 10° NW 16:17:38 42° WSW 16:22:54 10° S daylight
12 Dec - 05:09:00 10° SE 05:12:09 15° ESE 05:15:23 10° ENE visible
12 Dec - 06:48:00 10° SSW 06:53:47 80° ESE 06:59:55 10° NE visible
12 Dec - 08:32:03 10° W 08:37:08 28° NW 08:42:23 10° NNE daylight
12 Dec - 10:19:00 10° NW 10:21:55 13° NNW 10:24:52 10° NNE daylight
12 Dec - 12:04:07 10° NNW 12:07:19 14° NNE 12:10:26 10° NE daylight
12 Dec - 13:46:32 10° NNW 13:51:57 32° NE 13:57:09 10° ESE daylight
12 Dec - 15:29:05 10° NW 15:35:06 66° WSW 15:40:42 10° SSE daylight
12 Dec - 17:14:44 10° W 17:16:30 11° W 17:18:15 10° WSW daylight
13 Dec - 06:05:38 10° S 06:11:12 52° ESE 06:17:06 10° NE visible
13 Dec - 07:48:36 10° WSW 07:54:05 38° NW 07:59:49 10° NNE visible
13 Dec - 09:35:00 10° NW 09:38:32 16° NNW 09:42:06 10° NNE daylight
13 Dec - 11:21:14 10° NNW 11:23:52 13° N 11:26:29 10° NNE daylight
13 Dec - 13:03:56 10° NNW 13:08:50 24° NNE 13:13:33 10° E daylight
13 Dec - 14:46:19 10° NNW 14:52:26 82° NE 14:58:08 10° SE daylight
13 Dec - 16:30:13 10° WNW 16:34:18 20° WSW 16:38:14 10° SSW daylight
14 Dec - 05:23:40 10° S 05:28:44 33° ESE 05:34:05 10° NE visible
14 Dec - 07:05:24 10° SW 07:11:09 55° NW 07:17:12 10° NNE visible
14 Dec - 08:51:01 10° WNW 08:55:12 19° NNW 08:59:28 10° NNE daylight
14 Dec - 10:38:00 10° NNW 10:40:25 12° N 10:42:49 10° NNE daylight
14 Dec - 12:21:21 10° NNW 12:25:37 19° NNE 12:29:45 10° ENE daylight
14 Dec - 14:03:38 10° NNW 14:09:39 56° NE 14:15:16 10° SE daylight
14 Dec - 15:46:49 10° NW 15:52:00 31° WSW 15:56:53 10° S daylight
15 Dec - 04:42:14 10° SSE 04:46:25 21° ESE 04:50:45 10° ENE visible
15 Dec - 06:22:30 10° SW 06:28:21 80° NW 06:34:31 10° NNE visible
15 Dec - 08:07:11 10° W 08:11:58 24° NNW 08:16:52 10° NNE visible
15 Dec - 09:54:20 10° NNW 09:56:57 13° N 09:59:34 10° NNE daylight
15 Dec - 11:38:43 10° NNW 11:42:18 16° NNE 11:45:48 10° NE daylight
15 Dec - 13:21:02 10° NNW 13:26:43 39° NE 13:32:06 10° ESE daylight
15 Dec - 15:03:46 10° NW 15:09:33 49° WSW 15:14:56 10° S daylight
